Wind_Speed
9 9 9 9 9 9 9 8 9 9 8 7 7 6 6 7 7 6 6 6 6 7 7 8 8 8 8 9 10 10 10 11 11 12 12 12 12 11 11 11 11 11 11
9 10 10 10 10 9 9 9 10 9 9 8 8 8 8 8 8 7 7 7 7 7 7 7 8 8 8 9 10 11 11 11 11 11 11 11 11 11 11 10 11 11 11
10 10 10 10 10 9 10 10 11 10 9 9 9 9 9 9 9 9 9 8 8 7 7 8 8 8 9 9 10 11 11 12 11 10 10 10 10 10 10 10 10 10 10
10 11 11 11 11 10 10 10 11 11 10 10 9 10 10 9 9 9 9 9 9 8 8 8 8 8 9 10 10 10 11 11 10 9 9 9 9 10 10 9 8 8 9
11 12 12 12 11 11 11 11 11 11 10 10 10 10 10 9 9 9 9 9 9 8 8 8 9 9 10 10 11 11 10 11 10 9 9 9 9 9 8 9 9 9 9
12 13 13 12 12 12 12 12 12 11 11 10 10 10 10 10 9 10 10 10 9 9 9 9 9 10 10 11 11 11 11 11 10 10 9 8 8 8 8 8 8 8 8
12 13 12 12 12 12 11 11 11 11 11 11 10 11 11 10 10 10 10 10 10 10 10 9 10 10 10 10 11 11 11 10 9 9 8 7 9 9 9 9 9 8 9
13 13 13 12 12 12 11 11 12 11 11 11 11 11 11 11 11 10 10 10 10 10 11 10 10 10 10 10 10 10 11 9 9 8 8 8 8 8 9 9 9 9 9
14 14 14 13 13 12 12 11 11 12 12 11 12 12 12 11 11 10 10 10 10 11 11 11 11 11 11 10 10 9 10 9 9 9 8 8 8 8 8 9 9 9 10
15 15 15 14 13 13 13 12 11 11 11 12 12 12 12 11 10 9 9 10 10 11 11 11 11 11 11 10 9 9 9 9 10 10 9 9 8 9 9 9 10 9 10
15 16 16 15 14 14 13 13 12 12 12 13 13 13 12 11 11 11 10 9 10 10 10 10 10 10 10 10 10 9 9 10 10 10 10 9 9 9 9 10 10 10 10
16 16 16 15 16 15 14 14 14 14 14 14 13 13 13 12 11 11 11 11 10 10 10 11 10 9 10 10 10 9 9 10 10 10 10 10 10 9 9 10 10 10 11
17 17 17 16 16 15 15 15 15 15 15 14 14 14 14 13 12 12 12 12 12 11 11 11 10 10 10 10 10 10 10 10 10 10 10 10 10 10 10 10 11 11 11
17 18 17 17 17 17 17 16 16 15 15 15 15 15 15 15 14 13 13 13 12 12 11 12 10 10 10 10 10 10 11 11 11 10 10 11 11 10 10 11 11 11 11
18 17 17 17 17 17 17 17 16 16 15 15 15 16 16 16 16 15 14 13 13 12 12 12 11 10 10 10 10 10 10 11 11 11 11 12 12 11 11 11 11 12 12
18 17 18 17 17 17 17 17 17 16 16 15 15 15 16 16 15 15 14 14 13 13 12 12 11 11 10 9 10 10 11 11 11 11 12 12 12 12 12 12 12 13 14
18 18 18 18 19 18 18 17 17 16 16 16 16 16 15 15 15 15 15 14 14 14 13 12 11 11 10 11 11 11 12 12 12 12 12 13 13 13 13 14 14 14 15
20 19 19 19 19 19 19 19 18 17 17 16 16 16 16 16 15 15 15 14 14 14 13 12 12 12 12 12 12 13 13 12 12 12 13 13 13 14 14 15 15 15 15
21 21 21 21 21 20 20 19 18 18 18 17 17 16 16 16 15 15 15 14 14 14 14 13 13 13 12 13 13 13 13 13 13 13 13 13 14 14 14 14 15 15 16
21 21 22 22 22 21 21 20 20 19 18 17 18 17 17 17 16 16 16 15 15 15 14 14 14 14 14 14 14 13 13 14 13 13 14 14 14 14 14 14 15 15 16
22 22 22 21 21 21 22 21 19 19 19 18 18 18 18 18 18 17 17 17 17 17 16 16 16 15 15 15 14 14 14 14 14 14 14 15 15 15 15 14 15 15 16
23 23 23 23 23 22 22 22 21 20 20 20 19 19 19 19 19 18 18 18 18 18 18 18 17 17 17 16 16 16 15 15 15 14 14 14 15 16 15 15 16 17 17
24 24 24 24 24 23 23 23 22 21 21 21 21 21 20 19 19 19 19 19 18 18 19 19 19 19 18 18 17 17 17 16 16 16 16 15 15 16 17 17 18 19 19
24 24 24 24 24 24 24 24 23 22 22 22 21 20 20 20 20 20 20 19 19 19 19 19 20 19 19 18 18 18 18 17 17 17 17 17 17 17 18 19 19 19 19
25 25 25 25 25 25 24 25 25 24 22 22 22 21 21 21 21 21 20 20 20 20 20 20 20 20 20 20 20 19 19 19 18 18 18 18 18 19 19 19 19 19 20
27 26 26 26 25 25 25 25 24 24 23 22 22 22 22 22 22 22 22 21 21 21 21 21 21 22 22 22 22 21 21 20 20 20 20 20 20 20 20 20 20 20 21
Wind_Direction
285 286 290 288 277 266 262 263 262 261 255 253 256 256 258 263 268 276 280 287 280 278 275 271 275 283 282 279 282 288 293 299 295 287 285 276 270 269 268 267 267 268 267
281 284 288 286 279 267 265 266 264 262 259 253 255 259 264 269 272 273 274 276 276 276 277 274 278 282 285 285 282 287 293 298 300 294 287 278 270 267 266 265 265 265 265
279 283 288 287 281 273 271 270 268 262 261 259 260 262 266 269 270 273 273 273 276 276 277 274 277 281 284 287 289 288 294 298 296 293 288 280 274 268 267 267 266 265 264
280 281 284 286 285 282 278 271 266 266 264 262 262 264 268 269 270 274 274 273 273 277 279 274 274 279 282 286 289 293 297 300 298 292 284 279 273 272 271 269 272 273 268
281 283 282 282 284 281 280 276 268 265 262 261 261 265 270 271 274 276 274 275 278 283 282 279 278 278 282 287 289 288 291 297 296 292 285 281 277 277 274 267 272 276 275
286 287 286 282 281 280 278 276 271 268 266 261 261 264 270 273 274 274 272 275 278 278 280 281 282 280 283 287 290 288 289 293 292 289 289 285 283 278 276 272 273 274 276
290 288 287 285 282 281 278 274 271 272 271 268 267 266 267 271 276 278 275 275 276 279 280 280 282 282 284 287 290 288 290 295 292 291 288 286 281 275 272 273 273 275 277
288 288 286 289 285 280 277 274 269 272 272 269 269 269 268 266 271 274 273 276 277 277 280 281 281 282 284 288 289 286 292 290 292 292 286 285 282 272 272 271 274 278 280
286 286 288 288 287 280 275 273 272 270 269 266 269 273 270 268 265 266 268 273 276 276 278 279 281 282 282 283 284 288 291 290 289 288 285 284 277 273 273 273 274 277 283
285 287 285 285 284 279 278 276 274 272 268 265 270 273 272 269 266 269 270 273 276 276 275 275 277 280 280 280 280 283 286 289 294 295 291 286 282 278 274 274 274 276 284
284 286 285 284 283 281 277 278 275 271 269 266 267 269 268 264 267 269 271 274 276 277 275 277 277 279 281 281 283 282 283 288 293 294 294 288 285 282 275 275 275 276 282
282 283 283 281 282 279 277 277 276 272 270 267 266 264 262 261 264 264 267 272 277 276 273 276 279 282 284 281 282 285 285 286 289 292 292 291 287 283 279 277 277 277 281
283 282 282 281 281 278 278 277 275 274 271 268 265 262 261 261 261 262 266 270 275 275 274 275 280 282 284 283 283 285 287 287 291 291 289 289 287 283 283 280 279 279 282
283 281 281 280 280 279 277 276 273 272 271 270 266 263 263 261 260 260 262 267 270 272 277 279 281 281 282 282 282 282 288 292 291 291 290 287 287 283 283 282 281 281 283
281 280 279 277 279 278 274 272 272 273 272 270 268 264 262 260 260 260 260 265 266 272 277 279 279 280 281 283 285 284 291 292 292 291 293 291 288 286 283 284 282 282 284
280 278 276 275 277 277 274 271 271 273 271 268 268 266 263 260 257 257 260 263 264 267 269 272 274 275 276 280 289 291 291 292 291 292 291 291 288 287 283 283 282 282 282
276 277 274 273 274 275 273 272 271 269 270 265 264 264 262 258 255 258 261 262 263 265 265 264 270 273 277 280 287 290 292 291 292 293 293 292 289 286 283 281 281 282 280
273 274 273 273 275 274 272 270 269 267 267 264 263 263 262 257 257 257 259 261 262 262 264 265 268 271 277 280 281 285 289 292 291 291 292 291 288 285 282 281 281 282 283
273 272 273 273 275 275 273 270 270 269 267 264 262 262 261 261 260 259 259 260 262 262 263 266 267 268 272 277 280 282 286 289 290 290 289 290 289 286 283 282 282 283 284
274 273 274 273 271 270 269 269 268 267 267 265 262 258 258 259 258 259 259 259 261 261 263 265 266 268 271 275 281 283 285 286 286 287 287 286 288 287 284 283 283 284 285
274 273 274 273 270 267 265 265 265 265 266 264 261 259 257 256 256 257 259 258 258 259 262 265 267 270 273 275 278 281 285 286 285 286 286 285 286 286 283 282 282 283 285
272 273 273 272 270 268 265 262 261 263 265 264 261 260 259 257 256 257 258 260 260 261 263 265 268 271 272 273 275 278 282 284 285 285 286 286 287 287 287 287 287 284 282
270 271 272 271 271 269 267 264 261 261 263 263 261 259 258 258 258 258 258 260 261 262 263 265 267 270 270 271 273 276 277 279 281 282 284 287 286 288 287 285 286 287 286
271 271 270 269 269 268 266 264 261 261 262 262 262 261 257 256 258 260 261 263 262 262 263 265 265 265 266 269 271 274 277 278 280 280 282 285 285 285 286 288 288 287 286
270 269 268 269 267 267 267 263 259 258 259 260 260 261 260 258 258 260 262 264 265 266 265 264 265 265 267 269 271 273 276 278 279 279 280 283 285 286 287 290 289 287 287
269 268 267 266 265 265 265 263 259 257 257 257 258 260 261 260 259 261 262 264 264 265 266 267 267 266 266 268 270 271 273 276 277 278 279 282 284 285 286 288 289 288 288
Height
5875 5874 5874 5873 5874 5874 5874 5875 5875 5875 5876 5876 5876 5877 5877 5877 5877 5877 5877 5877 5876 5876 5877 5877 5877 5877 5877 5877 5877 5877 5876 5875 5874 5873 5872 5873 5874 5875 5876 5876 5877 5877 5878
5873 5873 5872 5872 5872 5872 5872 5873 5873 5874 5874 5874 5875 5875 5876 5875 5875 5876 5875 5875 5875 5875 5875 5876 5876 5876 5876 5876 5875 5875 5874 5873 5872 5870 5868 5868 5870 5872 5873 5874 5874 5875 5876
5871 5871 5871 5871 5870 5870 5871 5871 5871 5871 5872 5872 5873 5874 5874 5874 5874 5874 5874 5874 5874 5874 5874 5874 5874 5874 5874 5874 5874 5873 5872 5871 5870 5867 5866 5866 5868 5870 5871 5872 5872 5873 5873
5869 5869 5869 5869 5869 5869 5869 5869 5869 5869 5870 5870 5871 5871 5872 5872 5872 5872 5872 5872 5872 5872 5872 5872 5873 5873 5873 5872 5872 5871 5871 5870 5868 5866 5865 5865 5867 5868 5869 5870 5870 5871 5871
5867 5867 5867 5867 5867 5867 5867 5867 5867 5867 5867 5868 5868 5869 5869 5870 5870 5870 5870 5870 5870 5870 5871 5871 5871 5871 5871 5870 5870 5869 5869 5868 5867 5866 5865 5865 5866 5867 5867 5868 5868 5869 5869
5865 5865 5864 5864 5865 5865 5865 5864 5864 5864 5865 5866 5866 5867 5867 5867 5868 5868 5868 5868 5868 5868 5869 5869 5869 5869 5869 5868 5868 5867 5867 5866 5865 5865 5864 5864 5865 5865 5866 5866 5866 5867 5867
5863 5862 5862 5862 5862 5862 5862 5862 5862 5862 5863 5863 5864 5864 5864 5865 5865 5866 5866 5866 5866 5866 5866 5866 5867 5866 5866 5866 5865 5865 5864 5864 5864 5863 5863 5863 5863 5863 5863 5864 5864 5865 5865
5860 5860 5860 5859 5859 5859 5859 5859 5859 5859 5860 5861 5861 5862 5862 5864 5863 5863 5863 5864 5864 5864 5864 5864 5864 5864 5864 5863 5863 5863 5862 5862 5862 5861 5861 5861 5861 5861 5861 5862 5862 5862 5862
5858 5857 5857 5857 5857 5856 5856 5856 5857 5857 5858 5858 5859 5859 5860 5861 5861 5861 5861 5861 5861 5861 5861 5861 5861 5861 5861 5861 5861 5860 5860 5860 5859 5859 5859 5859 5859 5859 5859 5859 5859 5860 5860
5855 5854 5854 5854 5854 5854 5854 5854 5854 5854 5854 5855 5856 5856 5857 5857 5858 5858 5858 5858 5858 5859 5859 5859 5859 5858 5858 5858 5858 5858 5858 5857 5857 5857 5856 5856 5856 5856 5856 5857 5857 5857 5857
5852 5851 5851 5851 5851 5851 5851 5851 5851 5851 5851 5852 5852 5853 5854 5854 5855 5855 5856 5856 5856 5856 5856 5856 5856 5856 5856 5856 5856 5856 5855 5855 5855 5854 5854 5854 5853 5853 5853 5854 5854 5854 5854
5848 5848 5848 5848 5848 5848 5848 5848 5848 5848 5848 5849 5849 5850 5850 5851 5852 5852 5853 5853 5853 5853 5853 5854 5853 5853 5853 5853 5853 5853 5853 5853 5852 5852 5851 5851 5850 5850 5850 5851 5851 5851 5851
5845 5845 5844 5844 5844 5844 5844 5844 5844 5845 5845 5845 5846 5846 5847 5848 5849 5849 5850 5850 5850 5851 5851 5851 5851 5850 5850 5850 5851 5850 5850 5850 5850 5849 5848 5848 5848 5847 5847 5847 5847 5847 5847
5841 5841 5840 5840 5840 5840 5840 5840 5841 5841 5841 5842 5842 5843 5844 5844 5845 5846 5846 5847 5847 5848 5848 5848 5848 5848 5848 5848 5848 5848 5847 5847 5846 5846 5846 5845 5845 5844 5844 5844 5844 5844 5844
5837 5836 5836 5836 5836 5836 5836 5836 5837 5837 5838 5838 5839 5839 5840 5840 5841 5842 5843 5844 5844 5844 5845 5845 5845 5845 5845 5845 5845 5845 5844 5844 5843 5843 5843 5842 5842 5841 5841 5841 5841 5841 5841
5833 5832 5832 5832 5832 5832 5832 5833 5833 5833 5834 5834 5835 5835 5836 5836 5837 5838 5839 5840 5841 5841 5841 5842 5842 5842 5842 5842 5842 5842 5841 5841 5840 5840 5840 5839 5839 5838 5838 5838 5838 5838 5838
5828 5828 5828 5828 5828 5828 5828 5828 5829 5829 5830 5830 5831 5831 5832 5833 5833 5834 5835 5836 5837 5837 5838 5838 5838 5838 5838 5839 5839 5839 5838 5838 5837 5837 5836 5836 5835 5835 5835 5835 5834 5834 5834
5823 5823 5823 5823 5823 5823 5823 5824 5824 5825 5826 5826 5827 5827 5828 5829 5829 5830 5831 5832 5833 5833 5834 5835 5835 5835 5836 5836 5836 5836 5835 5835 5834 5834 5833 5833 5832 5832 5831 5831 5831 5831 5830
5818 5817 5818 5818 5818 5818 5818 5819 5819 5820 5821 5821 5822 5823 5824 5824 5825 5826 5827 5828 5829 5830 5830 5831 5832 5832 5832 5832 5832 5832 5832 5831 5831 5831 5830 5829 5829 5828 5828 5827 5827 5827 5826
5812 5812 5812 5812 5812 5813 5813 5814 5814 5815 5816 5817 5817 5818 5819 5820 5821 5822 5823 5824 5825 5826 5826 5827 5828 5828 5829 5829 5829 5829 5828 5828 5827 5827 5826 5826 5825 5825 5824 5824 5823 5823 5822
5806 5806 5806 5806 5806 5807 5807 5808 5809 5810 5811 5812 5812 5813 5814 5815 5816 5817 5818 5819 5820 5821 5822 5823 5824 5824 5824 5825 5825 5825 5825 5824 5824 5823 5822 5822 5822 5821 5820 5820 5819 5819 5818
5800 5800 5800 5800 5800 5801 5801 5802 5803 5804 5805 5806 5807 5808 5809 5810 5811 5812 5813 5814 5815 5816 5817 5818 5819 5819 5820 5820 5820 5820 5820 5820 5820 5820 5819 5818 5817 5817 5816 5816 5815 5814 5813
5793 5793 5793 5793 5794 5794 5795 5796 5797 5798 5799 5800 5802 5803 5804 5805 5806 5807 5808 5809 5810 5810 5812 5813 5813 5814 5815 5815 5816 5816 5816 5815 5815 5815 5815 5814 5813 5813 5812 5811 5810 5810 5808
5785 5786 5786 5786 5787 5787 5788 5789 5790 5791 5793 5794 5796 5797 5798 5799 5801 5802 5803 5804 5804 5805 5806 5807 5808 5808 5809 5810 5810 5811 5811 5811 5810 5810 5810 5809 5809 5808 5807 5806 5805 5804 5803
5777 5777 5778 5778 5779 5780 5781 5782 5783 5785 5786 5788 5789 5791 5792 5793 5795 5796 5797 5798 5799 5800 5800 5801 5802 5803 5804 5804 5805 5805 5806 5806 5805 5805 5805 5804 5804 5803 5802 5801 5800 5798 5797
5769 5769 5770 5770 5771 5772 5774 5775 5776 5778 5779 5781 5783 5784 5786 5787 5788 5789 5791 5792 5793 5794 5794 5795 5796 5797 5797 5798 5799 5799 5799 5800 5800 5800 5799 5799 5798 5797 5797 5796 5795 5793 5792